Location: Unspecified
(0.0000°N, 0.0000°E)
Time: 18:54:35
(UTC+00:00)

Vanguard 1 - Pass Details

Date: 20 November 2019
Orbit: 652 x 3831 km, 34.2° (Epoch: 05 December)

Event Time Altitude Azimuth Distance (km) Brightness Sun altitude
Rises 00:19:20 0° 228° (SW) 6,226 14.3 -68.7°
Reaches altitude 10° 00:25:43 10° 209° (SSW) 5,802 14.1 -68.1°
Maximum altitude 00:37:10 18° 172° (S) 5,890 14.1 -66.7°
Drops below altitude 10° 00:50:43 10° 135° (SE) 6,935 14.6 -64.7°
Sets 00:59:48 0° 118° (ESE) 7,888 15.0 -63.3°
